Weather Service Report


514 
ASUS43 KBIS 270210
RWRBIS

NWR BROADCAST TEXT
NATIONAL WEATHER SERVICE BISMARCK ND
900 PM CDT MON SEP 26 2016

NOTE: "FAIR" INDICATES FEW OR NO CLOUDS BELOW 12,000 FEET WITH NO
SIGNIFICANT WEATHER AND/OR OBSTRUCTIONS TO VISIBILITY.

  
CITY           SKY/WX    TMP DP  RH WIND       PRES   REMARKS
WILLISTON      CLEAR     51  41  68 NW5       30.09S                  
MINOT          CLEAR     57  37  47 W9        30.05S                  
MINOT AFB      CLEAR     48  38  70 NW10      30.04S                  
BISMARCK       CLEAR     54  38  54 W6        30.08S                  
DICKINSON      CLEAR     50  38  63 W5        30.11F                  
GARRISON         N/A     48  38  68 NW8       30.07S                  
HETTINGER ARPT CLOUDY    47  39  74 CALM      30.16S                  
JAMESTOWN      CLEAR     49  38  65 NW8       30.00S                  
CARRINGTON     FAIR      54  36  50 W12       30.03S                  
HAZEN          FAIR      48  37  66 W5        30.10S                  
LINTON         FAIR      46  39  76 SW6       30.10F                  
MANDAN         FAIR      50  37  62 W10       30.09S                  
RUGBY          FAIR      46  37  71 W9        30.02S                  
STANLEY        FAIR      46  39  76 NW6       30.10S                  
WATFORD CITY   FAIR      52  43  71 S6        30.10S                  
$$
  
CITY           SKY/WX    TMP DP  RH WIND       PRES   REMARKS
GRAND FORKS    CLEAR     48  38  68 NW8       29.93R                  
GRAND FORKS AF CLEAR     51  35  53 NW7       29.94R                  
DEVILS LAKE    CLEAR     50  36  58 NW9       30.00R                  
FARGO          CLEAR     52  31  44 W9        29.95R                  
CANDO          FAIR      46  34  61 NW9       30.02S                  
CAVALIER       FAIR      48  45  87 NW5       29.95R                  
GRAFTON        FAIR      50  46  87 N6        29.96R                  
GWINNER        FAIR      52  34  50 W8        30.01S                  
LANGDON        FAIR      48  34  57 NW10      29.97S                  
ROLLA          FAIR      48  32  53 NW10      30.02R                  
WALHALLA       FAIR      48  45  87 NW3       29.95S                  
$$
  
CITY           SKY/WX    TMP DP  RH WIND       PRES   REMARKS
ABERDEEN       CLEAR     58  34  40 NW10      30.05R                  
MOBRIDGE       CLEAR     55  38  52 NW5       30.08S                  
BUFFALO          N/A     59  42  53 W6        30.11F                  
RAPID CITY     CLEAR     56  40  55 N13       30.20R                  
GLASGOW        CLEAR     62  44  51 CALM      30.08F                  
SIDNEY         CLEAR     55  42  61 W8        30.09F                  
WOLF POINT     PTCLDY    58  46  64 CALM      30.09F                  
GLENDIVE       CLEAR     53  45  74 NW5       30.12F                  
MILES CITY     PTCLDY    59  48  67 SW8       30.13F                  
BAKER          CLOUDY    55  42  61 SW5       30.16F                  
$$
  
CITY           SKY/WX    TMP DP  RH WIND       PRES   REMARKS
BILLINGS       PTCLDY    67  45  45 SW13      30.17S                  
GREAT FALLS    CLEAR     62  41  46 SW13      30.10F                  
REGINA         CLEAR     55  37  50 CALM      30.06F                  
ESTEVAN        PTCLDY    46  37  71 NW6       30.07S                  
$$

  


518 
ASUS43 KBIS 270210
RWRND 

NORTH DAKOTA REGIONAL WEATHER ROUNDUP
NATIONAL WEATHER SERVICE BISMARCK ND
900 PM CDT MON SEP 26 2016

NOTE: "FAIR" INDICATES FEW OR NO CLOUDS BELOW 12,000 FEET WITH NO
SIGNIFICANT WEATHER AND/OR OBSTRUCTIONS TO VISIBILITY.


NDZ001>003-009>011-017-270300-
NORTHWEST NORTH DAKOTA
  
CITY           SKY/WX    TMP DP  RH WIND       PRES   REMARKS
WILLISTON      CLEAR     51  41  68 NW5       30.09S                  
MINOT          CLEAR     57  37  47 W9        30.05S                  
MINOT AFB      CLEAR     48  38  70 NW10      30.04S                  
$$
 
NDZ018>021-031>035-040>046-270300-
SOUTHWEST NORTH DAKOTA
  
CITY           SKY/WX    TMP DP  RH WIND       PRES   REMARKS
BISMARCK       CLEAR     54  38  54 W6        30.08S                  
DICKINSON      CLEAR     50  38  63 W5        30.11F                  
GARRISON         N/A     48  38  68 NW8       30.07S                  
HETTINGER ARPT CLOUDY    47  39  74 CALM      30.16S                  
$$
 
NDZ004>008-012>016-024-026-027-054-270300-
NORTHEAST NORTH DAKOTA
  
CITY           SKY/WX    TMP DP  RH WIND       PRES   REMARKS
GRAND FORKS    CLEAR     48  38  68 NW8       29.93R                  
GRND FRKS AFB  CLEAR     51  35  53 NW7       29.94R                  
DEVILS LAKE    CLEAR     50  36  58 NW9       30.00R                  
$$
 
NDZ022-023-025-028>030-036>039-047>053-270300-
SOUTHEAST NORTH DAKOTA
  
CITY           SKY/WX    TMP DP  RH WIND       PRES   REMARKS
FARGO          CLEAR     52  31  44 W9        29.95R                  
JAMESTOWN      CLEAR     49  38  65 NW8       30.00S                  
$$ 

  

Return to Home page


Western Regional Climate Center, wrcc@dri.edu